Regional Weather Roundup
Issued by NWS

Home | Current Version | Previous Version | Text Only | Print | Product List | Glossary On
Versions: 1 2 3 4 5 6 7 8 9 10 11 12 13 14 15 16 17 18 19 20 21 22 23 24 25 26 27 28 29 30 31 32 33 34 35 36 37 38 39 40 41 42 43 44 45 46 47 48 49 50
000
ASUS43 KDTX 011210
RWRMI
MICHIGAN HOURLY REGIONAL WEATHER ROUNDUP
NATIONAL WEATHER SERVICE DETROIT/PONTIAC MI
800 AM EDT WED APR 01 2015

NOTE: "FAIR" INDICATES FEW OR NO CLOUDS BELOW 12,000 FEET WITH NO
SIGNIFICANT WEATHER AND/OR OBSTRUCTION TO VISIBILITY.

MIZ047>049-052>055-059>063-066>070-074>076-081>083-011300-
SOUTHEAST LOWER MICHIGAN

CITY           SKY/WX    TMP DP  RH WIND       PRES   REMARKS
ADRIAN         FOG       29  28  96 CALM      30.06R VSB<1/4
6HR MIN TEMP:  29; 6HR MAX TEMP:  34;

ALMA           CLEAR     29  29 100 CALM      30.07R
6HR MIN TEMP:  26; 6HR MAX TEMP:  33;

ANN ARBOR      PTCLDY    25  25 100 CALM      30.05R FOG
BAD AXE        CLEAR     29  24  82 E5        30.08R
6HR MIN TEMP:  28; 6HR MAX TEMP:  31;

DETROIT CITY   MOCLDY    37  31  78 SW3       30.07R HAZE
6HR MIN TEMP:  36; 6HR MAX TEMP:  39;

DETROIT        MOCLDY    33  30  88 S3        30.06R FOG
6HR MIN TEMP:  32; 6HR MAX TEMP:  37;

FLINT          CLEAR     29  27  92 CALM      30.06R
6HR MIN TEMP:  28; 6HR MAX TEMP:  39;

GROSSE ILE     MOCLDY    34  30  86 S3        30.05R FOG
HILLSDALE      FOG       29  29 100 CALM      30.04R VSB<1/4
HOWELL         CLEAR     29  28  96 CALM      30.04R FOG
6HR MIN TEMP:  27; 6HR MAX TEMP:  38;


CITY           SKY/WX    TMP DP  RH WIND       PRES   REMARKS
JACKSON        CLEAR     27  25  92 SW7       30.04R
6HR MIN TEMP:  26; 6HR MAX TEMP:  35;

LAMBERTVILLE   CLEAR     32  30  93 CALM      30.07R FOG
LANSING        CLEAR     29  26  89 CALM      30.05R
6HR MIN TEMP:  25; 6HR MAX TEMP:  37;

LAPEER         NOT AVBL
MASON          CLEAR     29  26  86 CALM      30.04R
MONROE           N/A     30  28  93 CALM      30.05R FOG
MT. CLEMENS    FOG       27  26  97 NE2       30.04R VSB 1/8
6HR MIN TEMP:  25; 6HR MAX TEMP:  33;

PONTIAC        CLEAR     29  27  92 CALM      30.04R FOG
6HR MIN TEMP:  28; 6HR MAX TEMP:  36;

PORT HOPE        N/A     30  23  75 E10       30.08R
6HR MIN TEMP:  30; 6HR MAX TEMP:  32;

PORT HURON     CLOUDY    32  30  93 CALM      30.08R FOG
TRI CITIES     CLEAR     31  26  82 E6        30.07R
6HR MIN TEMP:  28; 6HR MAX TEMP:  32;

YPSILANTI      CLEAR     34  28  79 CALM      30.06R HAZE
6HR MIN TEMP:  33; 6HR MAX TEMP:  39;

$$
MIZ043>046-050>051-056>058-064>065-071>073-077>080-011300-
SOUTHWEST LOWER MICHIGAN

CITY           SKY/WX    TMP DP  RH WIND       PRES   REMARKS
BATTLE CREEK   CLEAR     29  26  89 CALM      30.04R
6HR MIN TEMP:  28; 6HR MAX TEMP:  39;

BENTON HARBOR  CLEAR     27  27 100 SE3       30.04R
6HR MIN TEMP:  26; 6HR MAX TEMP:  37;

BIG RAPIDS     FOG       28  28 100 CALM      30.04R VSB<1/4
6HR MIN TEMP:  28; 6HR MAX TEMP:  32;

COLDWATER      CLEAR     29  28  96 CALM      30.05R FOG
6HR MIN TEMP:  28; 6HR MAX TEMP:  35;

HOLLAND        CLEAR     31  28  89 CALM      30.03R
6HR MIN TEMP:  30; 6HR MAX TEMP:  39;

GRAND RAPIDS   CLEAR     28  24  85 NE6       30.04R
6HR MIN TEMP:  27; 6HR MAX TEMP:  35;

KALAMAZOO      CLEAR     30  28  92 S3        30.05R
6HR MIN TEMP:  28; 6HR MAX TEMP:  38;

MARSHALL       CLEAR     26  25  96 CALM      30.04R
MUSKEGON       CLEAR     29  25  85 CALM      30.03R
6HR MIN TEMP:  26; 6HR MAX TEMP:  34;

$$
MIZ016>042-011300-
NORTHERN LOWER MICHIGAN

CITY           SKY/WX    TMP DP  RH WIND       PRES   REMARKS
ALPENA         CLOUDY    31  27  85 SE3       30.08R
6HR MIN TEMP:  29; 6HR MAX TEMP:  31;

BEAVER ISLAND  FOG       30  29  99 E5        30.05R VSB 3/4
6HR MIN TEMP:  30; 6HR MAX TEMP:  31;

BELLAIRE       PTCLDY    32  28  86 CALM      30.05R
6HR MIN TEMP:  32; 6HR MAX TEMP:  34;

CADILLAC       CLEAR     26  24  96 CALM      30.01R
CHARLEVOIX     CLEAR     29  29 100 CALM      30.08R
6HR MIN TEMP:  29; 6HR MAX TEMP:  34;

FRANKFORT      SUNNY     26  20  80 CALM      30.05R
GAYLORD        CLOUDY    30  26  85 SE3       30.03R
6HR MIN TEMP:  29; 6HR MAX TEMP:  33;

GRAYLING       MOCLDY    28  23  81 E3        30.05R
6HR MIN TEMP:  26; 6HR MAX TEMP:  32;

HARBOR SPRINGS CLEAR     28  28  97 NE5       30.05R FOG
HOUGHTON LAKE  CLEAR     24  22  91 CALM      30.05R
6HR MIN TEMP:  23; 6HR MAX TEMP:  31;

OSCODA         CLOUDY    32  28  85 CALM      30.09R
PELLSTON       CLOUDY    31  30  96 E3        30.06R FOG
6HR MIN TEMP:  30; 6HR MAX TEMP:  32;

TRAVERSE CITY  CLEAR     26  23  88 CALM      30.04R
6HR MIN TEMP:  25; 6HR MAX TEMP:  30;

$$
MIZ007>008-015-011300-
EASTERN UPPER MICHIGAN

CITY           SKY/WX    TMP DP  RH WIND       PRES   REMARKS
KINROSS        CLOUDY    30  28  93 CALM      30.05R
6HR MIN TEMP:  28; 6HR MAX TEMP:  30;

MACKINAC ISLAN PTCLDY    30  30 100 SE5       30.05R
6HR MIN TEMP:  29; 6HR MAX TEMP:  32;

NEWBERRY       FOG       24  24 100 S5        30.04R VSB<1/4
S. S. MARIE    MOCLDY    29  26  89 CALM      30.05R
6HR MIN TEMP:  29; 6HR MAX TEMP:  30; 6HR PCP: TRACE;

$$
MIZ004>006-011>014-085-011300-
CENTRAL UPPER MICHIGAN

CITY           SKY/WX    TMP DP  RH WIND       PRES   REMARKS
MANISTIQUE     FOG       27  27 100 E3        30.04R VSB 1
ESCANABA       PTCLDY    28  25  86 CALM      30.04R
6HR MIN TEMP:  27; 6HR MAX TEMP:  34;

MENOMINEE      CLEAR     27  21  80 NW3       30.04R
6HR MIN TEMP:  25; 6HR MAX TEMP:  28;

SAWYER-GWINN   CLOUDY    28  27  93 SW5       30.01R
$$
MIZ001>003-009>011-084-011300-
WESTERN UPPER MICHIGAN

CITY           SKY/WX    TMP DP  RH WIND       PRES   REMARKS
IRON MOUNTAIN  CLOUDY    28  26  92 CALM      30.01R
6HR MIN TEMP:  24; 6HR MAX TEMP:  29;

HOUGHTON       CLOUDY    28  27  96 SE14      29.98R FOG
6HR MIN TEMP:  28; 6HR MAX TEMP:  28;

COPPER HARBOR    N/A     29  27  92 VRB6      30.01R
6HR MIN TEMP:  28; 6HR MAX TEMP:  29;

IRONWOOD       MOCLDY    36  34  93 SE6       29.90F
6HR MIN TEMP:  27; 6HR MAX TEMP:  36;

$$

ABBREVIATIONS USED IN REMARKS
   TC - TEMPERATURE IN CELSIUS
  WCI - WIND CHILL INDEX
   HX - HEAT INDEX
  VSB - VISIBILITY



USA.gov is the U.S. government's official web portal to all federal, state and local government web resources and services.